Theta_e
319 318 317 316 316 316 316 316 316 316 316 316 316 315 316 317 318 319 319 319 319 319 318 319 320 322 316 309 309 313 337 333 323 316 312 305 301 296 293 296 299 294 298 301 301 300 299
318 318 317 316 316 315 315 315 315 315 315 315 315 315 315 316 317 318 318 318 317 318 318 319 321 322 315 304 317 315 319 318 317 310 308 305 303 302 296 296 294 299 300 301 300 300 299
317 317 317 316 315 315 315 315 315 315 314 314 314 314 315 316 316 317 318 317 316 317 319 321 321 320 313 308 317 314 316 313 313 313 308 308 308 304 300 298 300 300 297 299 300 301 297
317 316 316 316 315 314 314 314 314 314 314 314 314 313 314 315 315 316 317 317 317 318 320 322 322 316 303 317 313 311 312 312 313 313 311 311 309 304 300 301 301 296 294 290 298 300 301
317 317 316 315 314 314 314 313 313 313 314 314 313 313 313 314 315 315 316 315 317 320 322 323 314 310 306 320 311 313 311 310 311 312 311 315 307 302 302 295 292 292 287 290 293 299 299
316 316 316 315 314 313 313 313 312 313 313 313 313 312 312 313 314 314 314 315 317 317 320 320 318 305 309 309 310 312 312 313 309 308 307 305 301 297 294 292 286 287 287 289 290 296 297
315 315 315 315 314 313 312 312 312 312 312 312 312 312 312 312 313 313 309 308 303 304 306 306 308 308 313 313 314 311 313 309 309 305 297 300 295 292 295 294 295 293 291 290 293 297 295
315 315 314 313 312 312 312 311 311 311 311 311 312 312 312 312 312 312 306 305 308 307 300 310 311 312 315 315 305 309 312 304 302 295 298 295 290 298 299 298 296 294 290 290 294 298 296
316 315 314 313 312 312 311 311 310 310 310 310 310 311 311 312 311 309 306 311 315 311 301 306 310 310 310 309 305 305 308 304 299 296 296 292 296 302 299 296 295 292 291 291 292 296 296
315 314 314 313 312 311 311 310 310 310 309 309 309 310 311 310 309 308 307 313 312 312 296 304 307 308 307 305 302 310 310 304 299 296 297 295 299 299 297 296 295 289 296 296 294 291 285
315 314 313 312 312 311 310 310 310 309 309 308 309 309 310 310 303 305 310 312 312 312 287 310 306 313 308 302 304 306 309 304 298 298 297 294 297 297 296 297 298 293 298 295 295 290 286
315 313 312 312 311 310 309 309 309 308 308 308 308 309 309 308 305 310 313 310 311 298 289 303 304 303 302 304 304 305 305 305 304 298 298 297 302 300 298 301 299 300 294 293 290 287 281
314 312 312 311 311 310 309 308 308 308 308 308 308 308 307 309 305 310 309 307 294 289 307 297 299 301 299 298 299 301 300 297 293 289 290 295 298 301 302 295 298 295 287 281 280 280 280
314 312 311 310 310 309 309 308 308 307 307 306 306 306 307 310 307 309 307 299 287 299 301 303 302 300 295 299 299 302 298 293 298 295 290 289 288 299 302 296 291 291 288 281 277 278 281
314 312 311 310 310 309 309 308 307 307 306 305 305 301 305 313 312 309 300 289 291 299 304 301 300 295 295 299 298 297 295 295 297 297 290 288 291 300 301 300 297 292 288 291 285 285 281
313 311 310 309 309 309 308 308 307 307 306 305 298 299 305 315 314 306 296 292 295 303 303 302 293 297 291 295 295 294 294 299 299 301 297 293 287 297 300 300 298 294 295 285 284 279 278
312 310 309 309 309 309 308 308 307 307 305 304 297 297 308 313 309 299 290 292 299 305 306 298 295 294 295 295 296 294 295 299 302 301 299 294 290 291 296 292 290 291 287 288 289 288 282
311 310 309 308 309 308 308 307 307 306 304 300 294 287 304 307 295 293 290 297 303 304 305 302 298 296 295 297 295 295 295 298 303 301 295 296 290 286 290 296 299 296 293 289 281 283 285
310 308 308 308 308 308 307 307 307 306 305 296 288 292 305 304 289 291 296 299 302 301 300 300 298 300 299 294 290 295 297 303 302 299 297 295 288 281 286 289 294 292 293 292 289 287 283
309 308 307 307 307 307 307 306 306 305 305 295 291 292 298 297 298 293 292 293 295 302 300 302 299 300 296 294 296 293 296 302 302 302 310 301 289 288 284 287 290 289 292 294 290 279 285
307 307 307 306 306 306 306 306 306 305 304 296 293 294 294 288 291 292 292 294 294 294 301 300 297 299 296 290 293 293 296 296 300 304 298 294 286 290 291 293 294 293 293 294 291 291 287
307 306 306 306 305 305 305 305 305 305 304 297 290 290 291 290 292 291 290 289 291 294 294 293 294 296 296 291 292 290 292 292 291 294 292 293 286 288 288 292 292 290 293 293 293 293 292
306 305 305 305 304 304 304 304 305 305 301 290 292 292 289 290 289 288 288 291 292 294 296 298 295 292 292 294 296 295 295 294 294 292 290 290 288 284 283 289 288 283 288 289 290 292 293
305 305 305 304 304 304 303 303 304 304 302 292 290 288 285 285 288 289 291 292 292 291 290 295 296 293 296 299 298 295 293 294 293 293 295 287 287 284 281 284 278 288 295 296 293 294 295
305 304 304 303 304 303 303 303 303 303 303 293 292 288 285 282 289 288 289 290 290 290 290 293 297 297 298 295 288 285 285 287 291 293 292 293 288 279 277 279 286 290 294 294 291 291 297
304 303 303 303 303 302 302 302 302 302 303 293 292 292 287 283 283 290 287 287 285 287 289 293 297 299 296 291 287 281 279 285 284 289 293 292 291 287 285 282 277 288 298 298 298 287 299
303 303 303 303 302 302 302 302 302 302 302 296 292 291 288 283 287 288 286 287 289 288 287 289 291 292 295 288 285 283 282 288 281 283 283 286 287 283 285 284 288 296 297 299 284 285 296
302 302 303 302 302 302 302 301 302 301 301 297 292 294 291 287 288 290 290 286 287 286 282 286 288 288 286 285 285 283 281 285 284 287 287 286 283 282 284 280 278 296 296 290 293 295 296
302 302 303 302 302 302 302 302 301 300 301 299 291 295 296 289 287 292 292 293 292 291 288 288 289 286 290 288 288 287 285 286 285 281 290 282 289 284 284 282 290 292 293 296 295 294 296
Wind_Speed
21 22 23 23 23 22 21 21 21 20 20 19 20 20 19 17 16 14 13 13 13 11 10 10 11 11 3 3 7 9 9 8 3 3 3 3 7 3 4 4 7 2 4 9 9 8 7
21 22 22 22 22 22 22 22 22 21 20 20 20 20 20 19 18 15 13 11 11 9 7 8 9 10 3 3 6 8 10 1 7 3 3 4 1 2 2 3 1 4 8 10 7 12 8
22 22 22 22 22 22 22 23 23 22 22 21 21 20 20 20 19 17 15 12 10 8 6 5 6 3 1 11 3 9 8 7 5 6 2 3 5 4 2 8 4 3 8 10 5 7 4
21 22 21 21 22 22 22 23 23 23 23 23 22 21 21 20 19 18 18 16 12 8 6 3 1 2 7 6 4 6 7 8 4 6 4 7 5 3 4 3 7 5 4 4 9 6 4
20 20 21 21 22 22 22 22 23 24 24 23 23 22 22 21 20 19 19 20 12 6 5 4 1 1 10 10 2 7 4 2 3 3 4 4 5 5 3 3 6 6 2 4 8 6 5
21 21 21 21 22 23 23 23 23 24 24 25 24 24 22 21 20 17 21 14 6 7 3 5 3 3 6 4 4 2 3 5 4 4 6 1 3 1 4 5 3 5 4 4 7 7 9
20 21 21 22 23 23 23 24 24 24 25 25 25 24 24 22 20 15 11 5 7 5 1 7 7 6 13 5 3 3 4 3 2 4 3 4 4 6 9 8 6 3 3 6 7 10 4
18 20 21 22 24 23 23 24 25 25 26 26 26 26 25 24 20 14 1 1 6 6 10 12 15 15 18 8 2 6 7 3 3 5 7 7 4 8 9 5 2 4 5 7 5 4 6
18 19 20 22 22 23 24 25 26 26 26 27 26 26 26 27 26 2 3 7 5 4 3 10 7 6 9 10 8 10 9 4 2 3 6 5 9 6 2 3 4 3 2 4 8 5 3
17 18 19 21 22 23 25 26 26 27 28 26 27 27 25 30 3 4 4 8 4 4 5 7 4 5 5 4 4 7 7 6 1 3 5 6 4 7 8 7 4 4 4 5 8 7 5
18 19 20 21 22 24 25 25 27 28 30 30 27 27 25 10 4 2 5 7 5 7 4 4 4 5 6 6 3 3 4 3 7 8 3 10 7 12 9 10 5 7 4 4 5 7 3
18 19 19 20 22 24 25 27 28 29 31 32 33 27 20 3 2 9 8 7 6 6 6 3 5 5 3 3 5 3 5 3 4 5 4 11 5 5 7 8 4 3 3 6 4 3 1
16 17 18 19 21 23 25 28 30 30 32 34 35 33 13 3 6 2 6 6 6 3 6 2 3 3 2 6 5 2 5 3 3 3 6 6 5 6 3 3 8 8 8 5 6 5 6
14 16 17 19 21 23 24 26 29 32 33 37 37 31 6 6 5 3 4 7 2 5 4 3 3 4 3 5 5 3 3 2 6 5 3 5 7 5 2 2 3 4 7 6 4 4 6
12 14 17 19 20 22 24 26 28 31 34 37 31 5 4 6 7 4 7 3 8 5 3 4 4 2 3 2 4 8 5 5 4 1 4 2 6 4 1 3 4 4 5 7 4 4 2
11 13 16 17 18 20 22 26 27 29 33 35 7 5 5 5 7 6 6 6 6 4 13 2 3 2 2 4 4 5 3 4 5 6 3 4 5 3 4 3 2 5 3 5 3 4 6
10 12 14 15 17 19 21 24 27 29 32 26 4 6 6 4 6 6 3 8 6 8 8 6 6 3 4 3 4 2 6 6 2 4 4 1 3 5 3 2 5 6 3 3 2 4 5
8 10 13 15 16 18 21 22 24 27 30 9 5 5 4 5 3 1 3 5 3 6 4 8 5 8 7 4 3 4 6 4 9 4 6 3 4 4 8 7 12 7 12 5 4 8 5
8 11 13 14 16 17 19 20 22 22 19 6 4 5 6 5 2 3 7 7 5 6 6 6 4 6 6 7 3 6 5 5 7 3 3 2 2 5 9 8 4 4 3 3 4 2 6
8 10 13 15 16 16 18 20 21 22 19 2 3 5 7 5 2 5 6 6 7 7 10 7 9 9 7 6 6 5 3 3 7 3 4 4 5 8 13 11 4 11 14 11 7 3 12
9 10 12 14 15 17 18 19 21 24 26 3 2 4 2 6 3 7 4 5 13 8 5 8 7 6 5 3 2 5 3 3 2 3 2 3 5 6 9 10 11 17 20 18 20 20 15
9 10 12 13 14 15 17 17 19 22 27 3 3 5 6 4 8 8 4 4 11 9 8 13 9 11 5 4 7 7 4 5 7 3 1 1 8 4 19 12 16 24 18 18 18 23 24
9 10 11 12 13 14 15 16 17 18 13 4 4 5 2 5 4 4 5 7 16 10 9 11 16 11 6 8 5 5 7 5 7 6 6 6 3 3 26 7 10 16 14 21 18 19 16
9 10 11 11 12 13 14 14 14 13 9 1 3 1 2 5 3 5 15 16 13 13 13 14 14 8 6 16 6 3 3 6 8 11 14 7 6 5 11 1 11 9 5 8 8 9 9
10 10 10 11 11 12 12 12 12 12 11 2 2 1 2 6 5 13 14 13 16 14 13 14 9 5 15 8 4 6 5 5 6 11 11 14 5 3 4 7 12 13 6 5 5 3 1
10 10 10 10 10 11 12 12 12 11 10 1 3 2 1 4 2 9 10 9 12 7 8 5 14 14 6 3 1 2 4 1 5 6 3 7 10 7 4 5 6 3 10 15 4 4 5
10 10 10 10 10 11 11 12 11 11 11 4 3 1 2 3 9 7 7 7 5 8 10 12 8 8 7 1 3 5 6 5 5 5 1 5 3 5 8 7 4 2 6 5 1 5 10
10 10 10 9 11 11 11 12 12 11 12 7 4 3 2 4 14 16 18 16 10 7 9 6 8 3 4 2 3 4 4 1 4 5 6 4 1 3 3 4 5 10 4 2 4 5 7
10 11 10 10 11 11 12 12 13 13 12 10 3 3 2 5 11 18 23 23 23 22 11 4 8 8 3 4 3 4 4 2 7 5 5 5 5 3 4 7 7 0 6 7 4 7 7
Wind_Direction
19 19 18 15 12 10 9 9 8 7 4 1 359 357 351 344 338 331 323 319 321 331 335 328 320 328 6 12 246 237 240 258 288 164 260 319 42 29 5 316 336 80 317 335 320 302 277
20 16 14 12 10 8 7 6 6 4 2 358 355 352 349 345 338 331 322 314 313 319 330 325 318 324 25 319 234 200 213 245 255 273 353 66 125 284 291 309 30 306 324 301 300 298 272
19 16 13 10 8 6 4 4 2 0 359 355 353 350 347 343 338 332 325 315 311 309 314 304 302 321 281 238 222 203 180 213 200 220 233 242 157 76 9 326 291 283 314 320 303 290 291
16 14 11 8 7 4 4 1 359 357 355 353 349 348 346 342 338 331 324 315 305 295 292 285 297 278 253 264 264 177 194 283 228 227 218 238 192 166 165 235 348 296 70 1 292 340 273
14 11 8 6 4 1 360 359 356 355 352 350 346 344 343 340 338 330 319 308 295 289 233 191 351 118 275 310 214 257 214 230 264 280 276 271 117 195 24 64 0 10 246 290 311 286 278
11 10 6 5 3 359 357 357 354 352 350 347 344 341 339 337 335 330 315 290 298 323 111 173 258 351 284 223 210 206 255 251 253 297 335 276 61 345 20 79 236 253 274 276 286 276 343
8 7 4 3 2 358 354 354 352 350 348 344 343 339 336 334 331 336 343 5 14 1 82 203 224 243 291 256 180 229 234 272 352 51 280 305 98 229 228 204 210 239 253 267 272 302 341
4 2 1 1 360 356 354 352 351 348 345 343 340 337 334 331 324 324 251 119 222 235 295 231 239 242 251 266 300 278 153 174 61 306 333 355 278 263 220 231 291 297 297 299 290 286 331
2 0 358 357 356 354 354 352 349 346 344 340 338 336 333 327 321 113 191 230 270 349 312 294 215 218 229 161 207 252 168 145 142 285 306 207 248 326 313 293 313 299 242 275 277 294 310
1 359 357 356 355 354 352 350 347 344 342 340 336 336 333 327 2 334 264 291 238 132 39 278 194 235 173 148 265 221 173 139 130 257 274 264 276 334 327 304 134 222 227 284 304 346 302
360 357 357 356 353 352 350 348 346 344 340 337 333 333 331 324 292 310 264 325 306 57 349 206 180 179 183 165 208 213 161 85 180 213 155 244 287 295 295 260 182 230 239 269 276 251 36
357 357 355 354 352 349 348 347 347 344 339 335 331 330 333 116 217 245 317 331 51 46 264 228 148 196 165 245 267 195 185 83 197 196 218 243 237 214 237 287 188 252 5 336 330 110 74
352 353 353 354 352 351 349 347 345 345 340 334 329 323 317 253 229 298 335 42 40 155 298 58 95 50 255 239 272 270 195 189 201 305 285 296 251 308 147 41 353 36 48 337 346 3 221
350 348 352 353 352 352 351 347 345 343 341 334 327 316 227 222 251 8 43 53 191 251 288 47 12 317 233 353 290 218 200 267 288 183 256 211 323 165 24 87 238 265 156 162 255 231 256
349 349 350 352 352 352 350 348 347 345 340 332 323 323 289 255 208 100 71 92 212 234 339 6 339 278 292 25 32 30 341 240 247 102 195 245 245 292 83 98 93 292 291 209 210 246 350
346 350 349 349 350 352 353 348 348 347 342 331 324 331 273 272 129 73 84 224 239 277 293 187 203 283 264 320 21 29 272 291 341 57 55 321 306 274 345 39 304 157 242 310 357 299 249
346 347 346 347 350 352 354 351 348 348 347 330 10 357 273 63 68 51 179 230 262 275 274 197 204 225 233 250 208 255 242 321 82 354 76 130 153 272 38 217 222 313 287 247 249 223 239
343 346 347 350 351 353 353 354 350 353 347 28 356 345 291 25 23 186 205 220 299 319 343 269 174 193 203 222 255 232 229 208 314 315 291 226 183 239 236 251 256 228 262 182 172 278 263
350 348 347 351 353 352 352 350 351 355 8 329 337 270 304 81 214 295 326 317 289 350 356 330 269 207 200 204 260 226 228 264 305 28 57 291 294 334 313 330 48 182 174 184 231 229 210
349 345 349 351 350 351 352 350 350 348 351 57 347 328 319 26 12 62 349 289 318 329 298 277 283 284 227 215 199 241 260 286 351 337 338 160 194 218 256 240 239 275 275 276 243 196 286
345 347 346 347 350 352 352 351 351 347 341 110 157 263 9 319 330 332 246 262 284 321 269 336 301 237 239 256 259 253 230 287 248 272 63 116 254 220 259 282 277 274 274 270 262 260 248
341 342 344 346 348 349 351 353 355 353 340 49 11 12 343 287 290 323 7 306 295 318 339 308 319 311 328 227 208 232 243 186 207 286 269 194 269 294 279 291 281 276 274 273 267 266 264
336 337 339 342 345 349 352 356 358 2 9 15 331 339 120 267 292 305 263 322 319 350 302 346 335 333 299 301 274 223 203 191 210 192 211 210 209 112 275 276 300 282 243 246 255 258 251
331 334 335 338 342 348 351 353 358 5 38 120 277 313 335 275 299 291 305 309 321 321 294 300 308 301 327 313 288 332 286 252 233 236 221 206 193 156 274 91 258 250 226 248 263 267 280
327 327 331 333 339 343 345 347 350 357 360 114 261 348 293 279 286 297 284 318 321 317 298 289 289 352 310 320 355 350 337 320 271 241 249 200 170 231 200 202 278 302 316 23 1 279 126
322 323 324 326 335 337 339 339 341 346 346 17 270 186 295 287 306 300 315 313 293 300 308 283 323 316 319 282 304 256 227 196 274 292 64 175 201 171 157 242 244 219 20 319 290 248 14
316 316 315 321 328 329 332 328 333 333 337 337 266 309 354 283 264 266 265 298 307 298 285 303 326 328 313 255 253 234 243 221 245 234 328 326 357 194 210 246 266 299 287 288 16 298 337
309 306 309 315 319 321 319 321 321 325 324 324 279 249 185 250 274 263 274 270 273 250 258 291 326 335 331 245 219 234 210 80 298 343 326 213 40 294 318 243 277 358 9 14 231 266 269
302 302 302 306 312 311 314 314 318 317 315 320 277 276 267 227 268 292 272 260 254 247 262 255 259 316 312 342 341 329 331 306 276 268 242 250 153 196 226 239 303 4 207 240 267 282 294